Location: Ravensburg
(47.7866°N, 9.6124°E)
Time: 15:14:23
(UTC+02:00)

ITAMSAT 1 - Pass Details

Date: 17 March 2026
Orbit: 782 x 793 km, 98.7° (Epoch: 18 April)

Event Time Altitude Azimuth Distance (km) Brightness Sun altitude
Exits shadow 21:02:37 43° 44° (NE) 1,092 8.2 -25.4°
Drops below altitude 10° 21:06:52 10° 356° (N) 2,358 10.5 -26.1°
Sets 21:09:16 0° 351° (N) 3,293 11.4 -26.4°
